Weather History for Yeovilton, United Kingdom

Change the Weather History Date:

Tuesday, March 12, 2013

  Actual Average Record
Temperature  
Mean Temperature 34 °F -  
Max Temperature 41 °F 51 °F 57 °F (1997)
Min Temperature 26 °F 37 °F 26 °F (2013)
Degree Days  
Heating Degree Days 32    
Moisture  
Dew Point 21 °F    
Average Humidity 58    
Maximum Humidity 70    
Minimum Humidity 37    
Precipitation  
Precipitation 0.00 in - - ()
Sea Level Pressure  
Sea Level Pressure 29.84 in    
Wind  
Wind Speed 17 mph ()    
Max Wind Speed 26 mph    
Max Gust Speed 38 mph    
Visibility 8.1 miles    
Events      
Averages and records for this station are not official NWS values.
T = Trace of Precipitation, MM = Missing Value Source: Averaged Metar Reports

Daily Weather History Graph

Daily Weather History Graph

Search for Another Location

Airport:

Trip Planner

Search our weather history database for the weather conditions in past years. The results will help you decide how hot, cold, wet, or windy it might be!

Date:

Astronomy

Mar. 12, 2013 Rise Set
Actual Time 6:31 AM GMT 6:10 PM GMT
Civil Twilight 5:58 AM GMT 6:43 PM GMT
Nautical Twilight 5:19 AM GMT 7:21 PM GMT
Astronomical Twilight 4:40 AM GMT 8:01 PM GMT
Moon 6:21 AM GMT (3/12) 7:22 PM GMT (3/12)
Length of Visible Light 12h 45m
Length of Day
11h 39m
New Moon, 1% of the Moon is Illuminated
Mar 12
New Moon
Mar 19
First Quarter
Mar 27
Full
Apr 3
Last Quarter
Apr 10
New

Hourly Weather History & Observations

Time (GMT) Temp. Windchill Dew Point Humidity Pressure Visibility Wind Dir Wind Speed Gust Speed Precip Events Conditions
12:50 AM 28.4 °F 15.1 °F 19.4 °F 69% 29.80 in 6.2 mi NNE 20.7 mph - N/A   Scattered Clouds
1:50 AM 26.6 °F 12.7 °F 17.6 °F 69% 29.80 in 6.2 mi NNE 20.7 mph - N/A   Partly Cloudy
2:50 AM 27 °F - 17 °F 56% 29.81 in 12 mi NNE 19.6 mph - -   Partly Cloudy
2:50 AM 26.6 °F 13.1 °F 17.6 °F 69% 29.80 in 6.2 mi NNE 19.6 mph - N/A   Partly Cloudy
3:50 AM 26.6 °F 13.1 °F 17.6 °F 69% 29.77 in 6.2 mi NNE 19.6 mph - N/A   Scattered Clouds
4:50 AM 26.6 °F 13.1 °F 17.6 °F 69% 29.80 in 6.2 mi NNE 19.6 mph - N/A   Scattered Clouds
5:50 AM 27 °F - 18 °F 57% 29.83 in 12 mi NNE 18.4 mph - -   Partly Cloudy
5:50 AM 26.6 °F 13.4 °F 17.6 °F 69% 29.80 in 6.2 mi NNE 18.4 mph - N/A   Partly Cloudy
6:50 AM 28.4 °F 15.4 °F 17.6 °F 64% 29.83 in 6.2 mi NNE 19.6 mph - N/A   Scattered Clouds
7:50 AM 30.2 °F 17.1 °F 17.6 °F 60% 29.83 in 6.2 mi NNE 21.9 mph - N/A   Scattered Clouds
8:50 AM 32 °F - 18 °F 44% 29.87 in 16 mi NNE 20.7 mph - -   Scattered Clouds
8:50 AM 32.0 °F 19.8 °F 17.6 °F 55% 29.86 in 6.2 mi NNE 20.7 mph - N/A   Scattered Clouds
9:50 AM 33.8 °F 20.8 °F 19.4 °F 56% 29.86 in 6.2 mi NE 26.5 mph 38.0 mph N/A   Mostly Cloudy
10:50 AM 33.8 °F 21.0 °F 19.4 °F 56% 29.86 in 6.2 mi NE 25.3 mph - N/A   Mostly Cloudy
11:50 AM 35 °F - 22 °F 46% 29.87 in 16 mi NNE 25.3 mph - -   Partly Cloudy
11:50 AM 35.6 °F 23.4 °F 21.2 °F 56% 29.86 in 6.2 mi NNE 25.3 mph - N/A   Scattered Clouds
12:50 PM 39.2 °F 28.5 °F 23.0 °F 52% 29.86 in 6.2 mi NE 24.2 mph - N/A   Scattered Clouds
1:50 PM 41.0 °F 31.9 °F 17.6 °F 39% 29.83 in 6.2 mi NE 19.6 mph - N/A   Scattered Clouds
2:50 PM 39 °F - 22 °F 37% 29.85 in 19 mi NNE 23.0 mph - -   Partly Cloudy
2:50 PM 39.2 °F 28.7 °F 21.2 °F 49% 29.83 in 6.2 mi NNE 23.0 mph - N/A   Scattered Clouds
3:50 PM 39.2 °F 28.5 °F 19.4 °F 45% 29.83 in 6.2 mi NNE 24.2 mph - N/A   Mostly Cloudy
4:50 PM 37.4 °F 27.8 °F 23.0 °F 56% 29.86 in 6.2 mi North 17.3 mph - N/A   Mostly Cloudy
5:50 PM 36 °F - 26 °F 56% 29.88 in 12 mi North 13.8 mph - -   Mostly Cloudy
5:50 PM 37.4 °F 28.9 °F 26.6 °F 65% 29.86 in 6.2 mi North 13.8 mph - N/A   Mostly Cloudy
6:50 PM 37.4 °F 31.4 °F 26.6 °F 65% 29.86 in 6.2 mi North 8.1 mph - N/A   Mostly Cloudy
7:50 PM 35.6 °F 31.7 °F 26.6 °F 70% 29.86 in 6.2 mi NNW 4.6 mph - N/A   Mostly Cloudy
8:50 PM 36 °F - 26 °F 56% 29.88 in 12 mi North 5.8 mph - -   Mostly Cloudy
8:50 PM 35.6 °F 30.7 °F 26.6 °F 70% 29.86 in 6.2 mi North 5.8 mph - N/A   Mostly Cloudy
9:50 PM 37.4 °F 30.8 °F 24.8 °F 60% 29.86 in 6.2 mi North 9.2 mph - N/A   Mostly Cloudy
10:50 PM 37.4 °F 30.3 °F 24.8 °F 60% 29.89 in 6.2 mi NNW 10.4 mph - N/A   Overcast
11:50 PM 36 °F - 26 °F 56% 29.89 in 12 mi North 5.8 mph - -   Overcast
11:50 PM 35.6 °F 30.7 °F 26.6 °F 70% 29.89 in 6.2 mi North 5.8 mph - N/A   Overcast